sat.trackr.live / text

‹ back to catalog

STARLINK-34468

NORAD 64424 · 2025-129N

PAYLOAD ACTIVE UNKNOWN

§ Identity

Operator
Country
US
Launch date
2025-06-17
Launch site
AFWTR
Launch vehicle
Mass (kg)
RCS (m²)

Purposes: comms

External: N2YO · Heavens-Above · Gunter

§ Orbital elements

Epoch: 2026-05-25T00:08:13.953984Z

Period
96.11 min
Inclination
70.0030°
Eccentricity
0.0003431
Mean motion
14.98348297 rev/d
Perigee alt
569.6 km
Apogee alt
574.4 km
Semi-major
6,950.1 km
B*
7.3551e-4
RAAN
242.2357°
Arg perigee
265.9539°
Mean anomaly
94.1227°
Rev number
5,271

§ Raw data

STARLINK-344681 64424U 25129N   26145.00571706  .00008698  00000+0  73551-3 0  99972 64424  70.0030 242.2357 0003431 265.9539  94.1227 14.98348297 52712

JSON: /api/v1/satellites/64424 · /tle

For live sub-satellite position, see the globe view (requires WebGL).

§ Visibility from observer

Set your observer location to see the next 7 days of passes ≥ 10°. The values pass through the URL so the page stays shareable.

No JS? Fill the form by hand. The geolocation button needs JavaScript.